contact:dominique.lefevre@mio.osupytheas.fr, maurice.libes@osupytheas.fr, didier.mallarino@osupytheas.fr
Project:EMSO http://www.emso-fr.org/EMSO-France
Depth: 2436.0 m
Title:EMSO Ligure Ouest : Data MII capteur MICROCAT
DateTime_Computer,Latitude,Longitude,Temperature,Conductivity,Pressure,DateTime_Instrument
DateTime_Computer,Latitude,Longitude,degC,S m-1,dbar,DateTime_Instrument
2020-04-19T00:01:39Z,42.805,6.029,13.2981,4.59981,2469.97,2020-4-19T02:02:19Z
2020-04-19T00:04:42Z,42.805,6.029,13.2988,4.60005,2469.947,2020-4-19T02:05:22Z
2020-04-19T00:07:45Z,42.805,6.029,13.2979,4.60017,2469.947,2020-4-19T02:08:25Z
2020-04-19T00:10:49Z,42.805,6.029,13.2984,4.60003,2469.923,2020-4-19T02:11:28Z
2020-04-19T00:13:52Z,42.805,6.029,13.2984,4.60001,2469.947,2020-4-19T02:14:32Z
2020-04-19T00:16:55Z,42.805,6.029,13.2977,4.59996,2469.96,2020-4-19T02:17:35Z
2020-04-19T00:19:58Z,42.805,6.029,13.2985,4.60013,2469.97,2020-4-19T02:20:38Z
2020-04-19T00:23:01Z,42.805,6.029,13.2989,4.59998,2469.984,2020-4-19T02:23:41Z
2020-04-19T00:26:05Z,42.805,6.029,13.2981,4.60006,2469.97,2020-4-19T02:26:45Z
2020-04-19T00:29:08Z,42.805,6.029,13.2986,4.60001,2469.97,2020-4-19T02:29:48Z
2020-04-19T00:32:11Z,42.805,6.029,13.2978,4.59996,2469.947,2020-4-19T02:32:51Z
2020-04-19T00:35:14Z,42.805,6.029,13.2979,4.60003,2469.984,2020-4-19T02:35:54Z
2020-04-19T00:38:18Z,42.805,6.029,13.2972,4.59984,2469.984,2020-4-19T02:38:58Z
2020-04-19T00:41:21Z,42.805,6.029,13.2990,4.59996,2469.96,2020-4-19T02:42:01Z
2020-04-19T00:44:24Z,42.805,6.029,13.2991,4.60006,2469.984,2020-4-19T02:45:04Z
2020-04-19T00:47:27Z,42.805,6.029,13.2983,4.60008,2469.993,2020-4-19T02:48:07Z
2020-04-19T00:50:31Z,42.805,6.029,13.2979,4.60001,2469.97,2020-4-19T02:51:10Z
2020-04-19T00:53:34Z,42.805,6.029,13.2990,4.60001,2469.97,2020-4-19T02:54:14Z
2020-04-19T00:56:37Z,42.805,6.029,13.2982,4.59995,2469.947,2020-4-19T02:57:17Z
2020-04-19T00:59:40Z,42.805,6.029,13.2971,4.59996,2469.923,2020-4-19T03:00:20Z
2020-04-19T01:02:44Z,42.805,6.029,13.2981,4.59997,2469.97,2020-4-19T03:03:23Z
2020-04-19T01:05:47Z,42.805,6.029,13.2982,4.60003,2469.97,2020-4-19T03:06:27Z
2020-04-19T01:08:50Z,42.805,6.029,13.2976,4.59996,2470.007,2020-4-19T03:09:30Z
2020-04-19T01:11:53Z,42.805,6.029,13.2978,4.59983,2470.007,2020-4-19T03:12:33Z
2020-04-19T01:14:56Z,42.805,6.029,13.2974,4.59980,2469.984,2020-4-19T03:15:36Z
2020-04-19T01:18:00Z,42.805,6.029,13.2977,4.60006,2470.017,2020-4-19T03:18:40Z
2020-04-19T01:21:03Z,42.805,6.029,13.2979,4.59992,2470.007,2020-4-19T03:21:43Z
2020-04-19T01:24:06Z,42.805,6.029,13.2976,4.59985,2469.97,2020-4-19T03:24:46Z
2020-04-19T01:27:10Z,42.805,6.029,13.2974,4.59999,2469.993,2020-4-19T03:27:50Z
2020-04-19T01:30:13Z,42.805,6.029,13.2984,4.60000,2469.993,2020-4-19T03:30:53Z
2020-04-19T01:33:16Z,42.805,6.029,13.2977,4.60006,2469.993,2020-4-19T03:33:56Z
2020-04-19T01:36:19Z,42.805,6.029,13.2980,4.59999,2469.984,2020-4-19T03:36:59Z
2020-04-19T01:39:23Z,42.805,6.029,13.2977,4.60003,2469.993,2020-4-19T03:40:03Z
2020-04-19T01:42:26Z,42.805,6.029,13.2980,4.59997,2470.03,2020-4-19T03:43:06Z
2020-04-19T01:45:30Z,42.805,6.029,13.2979,4.60005,2470.007,2020-4-19T03:46:09Z
2020-04-19T01:48:33Z,42.805,6.029,13.2983,4.60001,2469.993,2020-4-19T03:49:13Z
2020-04-19T01:51:36Z,42.805,6.029,13.2976,4.59999,2470.03,2020-4-19T03:52:16Z
2020-04-19T01:54:39Z,42.805,6.029,13.2976,4.59995,2470.04,2020-4-19T03:55:19Z
2020-04-19T01:57:43Z,42.805,6.029,13.2977,4.59985,2469.97,2020-4-19T03:58:22Z
2020-04-19T02:00:46Z,42.805,6.029,13.2982,4.60000,2470.053,2020-4-19T04:01:26Z
2020-04-19T02:03:49Z,42.805,6.029,13.2972,4.59983,2470.04,2020-4-19T04:04:29Z
2020-04-19T02:06:52Z,42.805,6.029,13.2979,4.59996,2470.04,2020-4-19T04:07:32Z
2020-04-19T02:09:55Z,42.805,6.029,13.2982,4.59992,2470.063,2020-4-19T04:10:35Z
2020-04-19T02:12:59Z,42.805,6.029,13.2983,4.59995,2470.04,2020-4-19T04:13:39Z
2020-04-19T02:16:02Z,42.805,6.029,13.2974,4.60002,2470.03,2020-4-19T04:16:42Z
2020-04-19T02:19:05Z,42.805,6.029,13.2982,4.59988,2470.017,2020-4-19T04:19:45Z
2020-04-19T02:22:09Z,42.805,6.029,13.2981,4.60001,2470.053,2020-4-19T04:22:49Z
2020-04-19T02:25:12Z,42.805,6.029,13.2974,4.59988,2470.017,2020-4-19T04:25:52Z
2020-04-19T02:28:15Z,42.805,6.029,13.2972,4.60002,2470.04,2020-4-19T04:28:55Z
2020-04-19T02:31:18Z,42.805,6.029,13.2983,4.60001,2470.063,2020-4-19T04:31:58Z
2020-04-19T02:34:22Z,42.805,6.029,13.2973,4.59998,2470.063,2020-4-19T04:35:02Z
2020-04-19T02:37:25Z,42.805,6.029,13.2974,4.59983,2470.04,2020-4-19T04:38:05Z
2020-04-19T02:40:28Z,42.805,6.029,13.2982,4.59997,2470.04,2020-4-19T04:41:08Z
2020-04-19T02:43:31Z,42.805,6.029,13.2976,4.59991,2470.073,2020-4-19T04:44:11Z
2020-04-19T02:46:35Z,42.805,6.029,13.2979,4.59991,2470.017,2020-4-19T04:47:15Z
2020-04-19T02:49:38Z,42.805,6.029,13.2973,4.59982,2470.053,2020-4-19T04:50:18Z
2020-04-19T02:52:41Z,42.805,6.029,13.2973,4.59982,2470.1,2020-4-19T04:53:21Z
2020-04-19T02:55:44Z,42.805,6.029,13.2968,4.59975,2470.077,2020-4-19T04:56:24Z
2020-04-19T02:58:48Z,42.805,6.029,13.2971,4.59982,2470.077,2020-4-19T04:59:27Z
2020-04-19T03:01:51Z,42.805,6.029,13.2975,4.59981,2470.077,2020-4-19T05:02:31Z
2020-04-19T03:04:54Z,42.805,6.029,13.2974,4.59983,2470.1,2020-4-19T05:05:34Z
2020-04-19T03:07:57Z,42.805,6.029,13.2981,4.59990,2470.1,2020-4-19T05:08:37Z
2020-04-19T03:11:01Z,42.805,6.029,13.2977,4.59991,2470.124,2020-4-19T05:11:40Z
2020-04-19T03:14:04Z,42.805,6.029,13.2979,4.59995,2470.063,2020-4-19T05:14:44Z
2020-04-19T03:17:07Z,42.805,6.029,13.2981,4.59991,2470.087,2020-4-19T05:17:47Z
2020-04-19T03:20:11Z,42.805,6.029,13.2978,4.59999,2470.087,2020-4-19T05:20:50Z
2020-04-19T03:23:14Z,42.805,6.029,13.2983,4.59997,2470.087,2020-4-19T05:23:54Z
2020-04-19T03:26:17Z,42.805,6.029,13.2979,4.59992,2470.11,2020-4-19T05:26:57Z
2020-04-19T03:29:20Z,42.805,6.029,13.2975,4.59982,2470.124,2020-4-19T05:30:00Z
2020-04-19T03:32:24Z,42.805,6.029,13.2976,4.59999,2470.11,2020-4-19T05:33:04Z
2020-04-19T03:35:27Z,42.805,6.029,13.2982,4.59999,2470.063,2020-4-19T05:36:07Z
2020-04-19T03:38:30Z,42.805,6.029,13.2976,4.59993,2470.087,2020-4-19T05:39:10Z
2020-04-19T03:41:33Z,42.805,6.029,13.2978,4.59997,2470.087,2020-4-19T05:42:13Z
2020-04-19T03:44:36Z,42.805,6.029,13.2974,4.59992,2470.147,2020-4-19T05:45:16Z
2020-04-19T03:47:40Z,42.805,6.029,13.2986,4.60004,2470.124,2020-4-19T05:48:20Z
2020-04-19T03:50:43Z,42.805,6.029,13.2982,4.60006,2470.11,2020-4-19T05:51:23Z
2020-04-19T03:53:46Z,42.805,6.029,13.2973,4.59986,2470.087,2020-4-19T05:54:26Z
2020-04-19T03:56:50Z,42.805,6.029,13.2978,4.59985,2470.087,2020-4-19T05:57:29Z
2020-04-19T03:59:53Z,42.805,6.029,13.2982,4.59991,2470.11,2020-4-19T06:00:33Z
2020-04-19T04:02:56Z,42.805,6.029,13.2982,4.60002,2470.087,2020-4-19T06:03:36Z
2020-04-19T04:05:59Z,42.805,6.029,13.2984,4.60001,2470.147,2020-4-19T06:06:39Z
2020-04-19T04:09:02Z,42.805,6.029,13.2982,4.59999,2470.1,2020-4-19T06:09:42Z
2020-04-19T04:12:06Z,42.805,6.029,13.2982,4.59995,2470.11,2020-4-19T06:12:46Z
2020-04-19T04:15:09Z,42.805,6.029,13.2974,4.59994,2470.11,2020-4-19T06:15:49Z
2020-04-19T04:18:12Z,42.805,6.029,13.2968,4.59983,2470.133,2020-4-19T06:18:52Z
2020-04-19T04:21:16Z,42.805,6.029,13.2979,4.59989,2470.11,2020-4-19T06:21:56Z
2020-04-19T04:24:19Z,42.805,6.029,13.2975,4.59986,2470.11,2020-4-19T06:24:59Z
2020-04-19T04:27:22Z,42.805,6.029,13.2981,4.59996,2470.11,2020-4-19T06:28:02Z
2020-04-19T04:30:25Z,42.805,6.029,13.2976,4.59984,2470.087,2020-4-19T06:31:05Z
2020-04-19T04:33:28Z,42.805,6.029,13.2983,4.59992,2470.1,2020-4-19T06:34:08Z
2020-04-19T04:36:32Z,42.805,6.029,13.2979,4.59986,2470.124,2020-4-19T06:37:12Z
2020-04-19T04:39:35Z,42.805,6.029,13.2983,4.60007,2470.147,2020-4-19T06:40:15Z
2020-04-19T04:42:38Z,42.805,6.029,13.2983,4.59992,2470.147,2020-4-19T06:43:18Z
2020-04-19T04:45:41Z,42.805,6.029,13.2986,4.60004,2470.133,2020-4-19T06:46:21Z
2020-04-19T04:48:45Z,42.805,6.029,13.2973,4.60005,2470.133,2020-4-19T06:49:25Z
2020-04-19T04:51:48Z,42.805,6.029,13.2984,4.59999,2470.133,2020-4-19T06:52:28Z
2020-04-19T04:54:51Z,42.805,6.029,13.2990,4.59997,2470.133,2020-4-19T06:55:31Z
2020-04-19T04:57:54Z,42.805,6.029,13.2981,4.60001,2470.147,2020-4-19T06:58:34Z
2020-04-19T05:00:58Z,42.805,6.029,13.2976,4.59999,2470.171,2020-4-19T07:01:38Z
2020-04-19T05:04:01Z,42.805,6.029,13.2986,4.59998,2470.11,2020-4-19T07:04:41Z
2020-04-19T05:07:04Z,42.805,6.029,13.2979,4.59991,2470.133,2020-4-19T07:07:44Z
2020-04-19T05:10:08Z,42.805,6.029,13.2991,4.59998,2470.11,2020-4-19T07:10:47Z
2020-04-19T05:13:11Z,42.805,6.029,13.2983,4.60001,2470.156,2020-4-19T07:13:51Z
2020-04-19T05:16:14Z,42.805,6.029,13.2983,4.59999,2470.133,2020-4-19T07:16:54Z
2020-04-19T05:19:17Z,42.805,6.029,13.2976,4.59996,2470.11,2020-4-19T07:19:57Z
2020-04-19T05:22:20Z,42.805,6.029,13.2982,4.59991,2470.133,2020-4-19T07:23:00Z
2020-04-19T05:25:24Z,42.805,6.029,13.2979,4.59996,2470.147,2020-4-19T07:26:04Z
2020-04-19T05:28:27Z,42.805,6.029,13.2975,4.60003,2470.147,2020-4-19T07:29:07Z
2020-04-19T05:31:30Z,42.805,6.029,13.2982,4.59996,2470.133,2020-4-19T07:32:10Z
2020-04-19T05:34:33Z,42.805,6.029,13.2989,4.60006,2470.133,2020-4-19T07:35:13Z
2020-04-19T05:37:36Z,42.805,6.029,13.2979,4.60012,2470.11,2020-4-19T07:38:16Z
2020-04-19T05:40:40Z,42.805,6.029,13.2982,4.59997,2470.124,2020-4-19T07:41:20Z
2020-04-19T05:43:43Z,42.805,6.029,13.2982,4.60005,2470.171,2020-4-19T07:44:23Z
2020-04-19T05:46:46Z,42.805,6.029,13.2981,4.59994,2470.156,2020-4-19T07:47:26Z
2020-04-19T05:49:50Z,42.805,6.029,13.2991,4.59994,2470.156,2020-4-19T07:50:30Z
2020-04-19T05:52:53Z,42.805,6.029,13.2988,4.60004,2470.133,2020-4-19T07:53:33Z
2020-04-19T05:55:56Z,42.805,6.029,13.2981,4.59996,2470.147,2020-4-19T07:56:36Z
2020-04-19T05:58:59Z,42.805,6.029,13.2982,4.60006,2470.171,2020-4-19T07:59:39Z
2020-04-19T06:02:03Z,42.805,6.029,13.2978,4.60000,2470.171,2020-4-19T08:02:43Z
2020-04-19T06:05:06Z,42.805,6.029,13.2977,4.60001,2470.147,2020-4-19T08:05:46Z
2020-04-19T06:08:09Z,42.805,6.029,13.2979,4.59993,2470.171,2020-4-19T08:08:49Z
2020-04-19T06:11:12Z,42.805,6.029,13.2982,4.60002,2470.147,2020-4-19T08:11:52Z
2020-04-19T06:14:15Z,42.805,6.029,13.2989,4.59998,2470.147,2020-4-19T08:14:55Z
2020-04-19T06:17:19Z,42.805,6.029,13.2984,4.60006,2470.11,2020-4-19T08:17:59Z
2020-04-19T06:20:22Z,42.805,6.029,13.2977,4.59997,2470.171,2020-4-19T08:21:02Z
2020-04-19T06:23:25Z,42.805,6.029,13.2983,4.59999,2470.156,2020-4-19T08:24:05Z
2020-04-19T06:26:28Z,42.805,6.029,13.2990,4.60009,2470.147,2020-4-19T08:27:08Z
2020-04-19T06:29:32Z,42.805,6.029,13.2985,4.60008,2470.11,2020-4-19T08:30:12Z
2020-04-19T06:32:35Z,42.805,6.029,13.2982,4.60004,2470.124,2020-4-19T08:33:15Z
2020-04-19T06:35:38Z,42.805,6.029,13.2979,4.59996,2470.124,2020-4-19T08:36:18Z
2020-04-19T06:38:41Z,42.805,6.029,13.2974,4.60005,2470.087,2020-4-19T08:39:21Z
2020-04-19T06:41:45Z,42.805,6.029,13.2978,4.60006,2470.11,2020-4-19T08:42:24Z
2020-04-19T06:44:48Z,42.805,6.029,13.2983,4.60009,2470.11,2020-4-19T08:45:28Z
2020-04-19T06:47:51Z,42.805,6.029,13.2982,4.60005,2470.124,2020-4-19T08:48:31Z
2020-04-19T06:50:55Z,42.805,6.029,13.2990,4.59993,2470.124,2020-4-19T08:51:34Z
2020-04-19T06:53:58Z,42.805,6.029,13.2983,4.60003,2470.124,2020-4-19T08:54:38Z
2020-04-19T06:57:01Z,42.805,6.029,13.2975,4.59980,2470.11,2020-4-19T08:57:41Z
2020-04-19T07:00:04Z,42.805,6.029,13.2983,4.59999,2470.087,2020-4-19T09:00:44Z
2020-04-19T07:03:07Z,42.805,6.029,13.2983,4.60006,2470.11,2020-4-19T09:03:47Z
2020-04-19T07:06:11Z,42.805,6.029,13.2990,4.59998,2470.133,2020-4-19T09:06:51Z
2020-04-19T07:09:14Z,42.805,6.029,13.2978,4.59991,2470.077,2020-4-19T09:09:54Z
2020-04-19T07:12:17Z,42.805,6.029,13.2979,4.60003,2470.087,2020-4-19T09:12:57Z
2020-04-19T07:15:20Z,42.805,6.029,13.2976,4.60009,2470.1,2020-4-19T09:16:00Z
2020-04-19T07:18:24Z,42.805,6.029,13.2983,4.60002,2470.11,2020-4-19T09:19:03Z
2020-04-19T07:21:27Z,42.805,6.029,13.2979,4.59994,2470.1,2020-4-19T09:22:07Z
2020-04-19T07:24:30Z,42.805,6.029,13.2981,4.59994,2470.11,2020-4-19T09:25:10Z
2020-04-19T07:27:34Z,42.805,6.029,13.2979,4.59991,2470.1,2020-4-19T09:28:13Z
2020-04-19T07:30:37Z,42.805,6.029,13.2982,4.59999,2470.04,2020-4-19T09:31:17Z
2020-04-19T07:33:40Z,42.805,6.029,13.2982,4.59994,2470.087,2020-4-19T09:34:20Z
2020-04-19T07:36:43Z,42.805,6.029,13.2979,4.59976,2470.124,2020-4-19T09:37:23Z
2020-04-19T07:39:47Z,42.805,6.029,13.2979,4.59989,2470.087,2020-4-19T09:40:26Z
2020-04-19T07:42:50Z,42.805,6.029,13.2988,4.60003,2470.077,2020-4-19T09:43:30Z
2020-04-19T07:45:53Z,42.805,6.029,13.2978,4.60009,2470.087,2020-4-19T09:46:33Z
2020-04-19T07:48:56Z,42.805,6.029,13.2982,4.60010,2470.087,2020-4-19T09:49:36Z
2020-04-19T07:52:00Z,42.805,6.029,13.2991,4.60002,2470.087,2020-4-19T09:52:40Z
2020-04-19T07:55:03Z,42.805,6.029,13.2977,4.59997,2470.063,2020-4-19T09:55:43Z
2020-04-19T07:58:06Z,42.805,6.029,13.2983,4.60009,2470.087,2020-4-19T09:58:46Z
2020-04-19T08:01:10Z,42.805,6.029,13.2982,4.60005,2470.063,2020-4-19T10:01:50Z
2020-04-19T08:04:13Z,42.805,6.029,13.2990,4.60011,2470.063,2020-4-19T10:04:53Z
2020-04-19T08:07:16Z,42.805,6.029,13.2985,4.60009,2470.077,2020-4-19T10:07:56Z
2020-04-19T08:10:19Z,42.805,6.029,13.3000,4.60002,2470.1,2020-4-19T10:10:59Z
2020-04-19T08:13:23Z,42.805,6.029,13.2983,4.59996,2470.063,2020-4-19T10:14:03Z
2020-04-19T08:16:26Z,42.805,6.029,13.2983,4.60002,2470.063,2020-4-19T10:17:06Z
2020-04-19T08:19:29Z,42.805,6.029,13.2986,4.59996,2470.017,2020-4-19T10:20:09Z
2020-04-19T08:22:32Z,42.805,6.029,13.2978,4.59980,2470.077,2020-4-19T10:23:12Z
2020-04-19T08:25:36Z,42.805,6.029,13.2972,4.60003,2470.1,2020-4-19T10:26:16Z
2020-04-19T08:28:39Z,42.805,6.029,13.2994,4.60009,2470.063,2020-4-19T10:29:19Z
2020-04-19T08:31:42Z,42.805,6.029,13.2988,4.60008,2470.04,2020-4-19T10:32:22Z
2020-04-19T08:34:45Z,42.805,6.029,13.2986,4.60004,2470.053,2020-4-19T10:35:25Z
2020-04-19T08:37:49Z,42.805,6.029,13.2993,4.60013,2470.077,2020-4-19T10:38:29Z
2020-04-19T08:40:52Z,42.805,6.029,13.2980,4.60002,2470.063,2020-4-19T10:41:32Z
2020-04-19T08:43:55Z,42.805,6.029,13.2989,4.60005,2470.077,2020-4-19T10:44:35Z
2020-04-19T08:46:59Z,42.805,6.029,13.2986,4.59981,2470.053,2020-4-19T10:47:38Z
2020-04-19T08:50:02Z,42.805,6.029,13.2986,4.60002,2470.04,2020-4-19T10:50:42Z
2020-04-19T08:53:05Z,42.805,6.029,13.2982,4.60008,2470.077,2020-4-19T10:53:45Z
2020-04-19T08:56:08Z,42.805,6.029,13.2995,4.60011,2470.063,2020-4-19T10:56:48Z
2020-04-19T08:59:11Z,42.805,6.029,13.2981,4.60007,2470.053,2020-4-19T10:59:51Z
2020-04-19T09:02:15Z,42.805,6.029,13.2987,4.60011,2470.053,2020-4-19T11:02:55Z
2020-04-19T09:05:18Z,42.805,6.029,13.2981,4.60004,2470.063,2020-4-19T11:05:58Z
2020-04-19T09:08:21Z,42.805,6.029,13.2983,4.60009,2470.017,2020-4-19T11:09:01Z
2020-04-19T09:11:24Z,42.805,6.029,13.2999,4.60008,2470.1,2020-4-19T11:12:04Z
2020-04-19T09:14:28Z,42.805,6.029,13.2987,4.60009,2470.063,2020-4-19T11:15:08Z
2020-04-19T09:17:31Z,42.805,6.029,13.2992,4.60010,2470.04,2020-4-19T11:18:11Z
2020-04-19T09:20:34Z,42.805,6.029,13.2991,4.60007,2470.04,2020-4-19T11:21:14Z
2020-04-19T09:23:37Z,42.805,6.029,13.2982,4.60019,2470.03,2020-4-19T11:24:17Z
2020-04-19T09:26:41Z,42.805,6.029,13.2984,4.60006,2470.017,2020-4-19T11:27:20Z
2020-04-19T09:29:44Z,42.805,6.029,13.2981,4.60002,2470.063,2020-4-19T11:30:24Z
2020-04-19T09:32:47Z,42.805,6.029,13.2988,4.60006,2470.053,2020-4-19T11:33:27Z
2020-04-19T09:35:50Z,42.805,6.029,13.2990,4.60007,2470.04,2020-4-19T11:36:30Z
2020-04-19T09:38:54Z,42.805,6.029,13.2983,4.60003,2470.03,2020-4-19T11:39:33Z
2020-04-19T09:41:57Z,42.805,6.029,13.2986,4.59991,2470.017,2020-4-19T11:42:37Z
2020-04-19T09:45:00Z,42.805,6.029,13.2987,4.60006,2469.993,2020-4-19T11:45:40Z
2020-04-19T09:48:03Z,42.805,6.029,13.2977,4.60013,2470.04,2020-4-19T11:48:43Z
2020-04-19T09:51:07Z,42.805,6.029,13.2986,4.59996,2470.017,2020-4-19T11:51:46Z
2020-04-19T09:54:10Z,42.805,6.029,13.2979,4.59997,2470.017,2020-4-19T11:54:50Z
2020-04-19T09:57:13Z,42.805,6.029,13.2993,4.60023,2470.017,2020-4-19T11:57:53Z
2020-04-19T10:00:16Z,42.805,6.029,13.2982,4.60014,2469.993,2020-4-19T12:00:56Z
2020-04-19T10:03:19Z,42.805,6.029,13.2982,4.59998,2470.03,2020-4-19T12:03:59Z
2020-04-19T10:06:23Z,42.805,6.029,13.2978,4.59983,2469.993,2020-4-19T12:07:03Z
2020-04-19T10:09:26Z,42.805,6.029,13.2988,4.60014,2469.984,2020-4-19T12:10:06Z
2020-04-19T10:12:29Z,42.805,6.029,13.2985,4.60014,2470.007,2020-4-19T12:13:09Z
2020-04-19T10:15:32Z,42.805,6.029,13.2990,4.60011,2470.017,2020-4-19T12:16:12Z
2020-04-19T10:18:36Z,42.805,6.029,13.2986,4.60019,2470.007,2020-4-19T12:19:15Z
2020-04-19T10:21:39Z,42.805,6.029,13.2978,4.59996,2470.007,2020-4-19T12:22:19Z
2020-04-19T10:24:42Z,42.805,6.029,13.2987,4.60011,2469.993,2020-4-19T12:25:22Z
2020-04-19T10:27:45Z,42.805,6.029,13.2980,4.59992,2469.97,2020-4-19T12:28:25Z
2020-04-19T10:30:49Z,42.805,6.029,13.2977,4.60000,2469.984,2020-4-19T12:31:29Z
2020-04-19T10:33:52Z,42.805,6.029,13.2979,4.60005,2469.947,2020-4-19T12:34:32Z
2020-04-19T10:36:55Z,42.805,6.029,13.2988,4.60013,2469.993,2020-4-19T12:37:35Z
2020-04-19T10:39:58Z,42.805,6.029,13.2983,4.60011,2469.97,2020-4-19T12:40:38Z
2020-04-19T10:43:02Z,42.805,6.029,13.2993,4.59995,2469.96,2020-4-19T12:43:42Z
2020-04-19T10:46:05Z,42.805,6.029,13.2979,4.60000,2469.947,2020-4-19T12:46:45Z
2020-04-19T10:49:08Z,42.805,6.029,13.2974,4.59994,2469.96,2020-4-19T12:49:48Z
2020-04-19T10:52:11Z,42.805,6.029,13.2981,4.60007,2469.97,2020-4-19T12:52:51Z
2020-04-19T10:55:15Z,42.805,6.029,13.2975,4.59981,2469.984,2020-4-19T12:55:55Z
2020-04-19T10:58:18Z,42.805,6.029,13.2989,4.60009,2469.984,2020-4-19T12:58:58Z
2020-04-19T11:01:21Z,42.805,6.029,13.2980,4.60011,2469.97,2020-4-19T13:02:01Z
2020-04-19T11:04:24Z,42.805,6.029,13.2974,4.59987,2469.947,2020-4-19T13:05:04Z
2020-04-19T11:07:28Z,42.805,6.029,13.2976,4.59986,2470.007,2020-4-19T13:08:07Z
2020-04-19T11:10:31Z,42.805,6.029,13.2987,4.60016,2469.993,2020-4-19T13:11:11Z
2020-04-19T11:13:34Z,42.805,6.029,13.2983,4.60002,2469.984,2020-4-19T13:14:14Z
2020-04-19T11:16:37Z,42.805,6.029,13.2986,4.59979,2469.947,2020-4-19T13:17:17Z
2020-04-19T11:19:41Z,42.805,6.029,13.2978,4.59999,2469.984,2020-4-19T13:20:20Z
2020-04-19T11:22:44Z,42.805,6.029,13.2980,4.60003,2469.937,2020-4-19T13:23:24Z
2020-04-19T11:25:47Z,42.805,6.029,13.2995,4.60011,2469.947,2020-4-19T13:26:27Z
2020-04-19T11:28:50Z,42.805,6.029,13.2991,4.60019,2469.96,2020-4-19T13:29:30Z
2020-04-19T11:31:53Z,42.805,6.029,13.2989,4.59997,2469.97,2020-4-19T13:32:33Z
2020-04-19T11:34:57Z,42.805,6.029,13.2988,4.60024,2469.923,2020-4-19T13:35:37Z
2020-04-19T11:38:00Z,42.805,6.029,13.2984,4.60002,2469.937,2020-4-19T13:38:40Z
2020-04-19T11:41:03Z,42.805,6.029,13.2992,4.60011,2469.96,2020-4-19T13:41:43Z
2020-04-19T11:44:06Z,42.805,6.029,13.2991,4.60003,2469.947,2020-4-19T13:44:46Z
2020-04-19T11:47:10Z,42.805,6.029,13.2989,4.60005,2469.937,2020-4-19T13:47:49Z
2020-04-19T11:50:13Z,42.805,6.029,13.2981,4.59999,2469.947,2020-4-19T13:50:53Z
2020-04-19T11:53:16Z,42.805,6.029,13.2983,4.60008,2469.923,2020-4-19T13:53:56Z
2020-04-19T11:56:19Z,42.805,6.029,13.2991,4.60003,2469.947,2020-4-19T13:56:59Z
2020-04-19T11:59:23Z,42.805,6.029,13.2991,4.60002,2469.984,2020-4-19T14:00:03Z
2020-04-19T12:02:26Z,42.805,6.029,13.2984,4.59984,2469.96,2020-4-19T14:03:06Z
2020-04-19T12:05:29Z,42.805,6.029,13.2978,4.60003,2469.947,2020-4-19T14:06:09Z
2020-04-19T12:08:33Z,42.805,6.029,13.2979,4.59999,2469.96,2020-4-19T14:09:13Z
2020-04-19T12:11:36Z,42.805,6.029,13.2980,4.60000,2469.96,2020-4-19T14:12:16Z
2020-04-19T12:14:39Z,42.805,6.029,13.2976,4.59995,2469.96,2020-4-19T14:15:19Z
2020-04-19T12:17:42Z,42.805,6.029,13.2987,4.60014,2469.923,2020-4-19T14:18:22Z
2020-04-19T12:20:46Z,42.805,6.029,13.2982,4.60007,2469.937,2020-4-19T14:21:25Z
2020-04-19T12:23:49Z,42.805,6.029,13.2985,4.60012,2469.914,2020-4-19T14:24:29Z
2020-04-19T12:26:52Z,42.805,6.029,13.2989,4.60013,2469.96,2020-4-19T14:27:32Z
2020-04-19T12:29:55Z,42.805,6.029,13.2984,4.60004,2469.923,2020-4-19T14:30:35Z
2020-04-19T12:32:59Z,42.805,6.029,13.2976,4.59990,2469.923,2020-4-19T14:33:38Z
2020-04-19T12:36:02Z,42.805,6.029,13.3000,4.60008,2469.947,2020-4-19T14:36:42Z
2020-04-19T12:39:05Z,42.805,6.029,13.2986,4.60011,2469.947,2020-4-19T14:39:45Z
2020-04-19T12:42:08Z,42.805,6.029,13.2993,4.60000,2469.923,2020-4-19T14:42:48Z
2020-04-19T12:45:12Z,42.805,6.029,13.2978,4.60009,2469.937,2020-4-19T14:45:51Z
2020-04-19T12:48:15Z,42.805,6.029,13.2995,4.59998,2469.96,2020-4-19T14:48:55Z
2020-04-19T12:51:18Z,42.805,6.029,13.2982,4.60003,2469.9,2020-4-19T14:51:58Z
2020-04-19T12:54:21Z,42.805,6.029,13.2981,4.60003,2469.96,2020-4-19T14:55:01Z
2020-04-19T12:57:25Z,42.805,6.029,13.2981,4.59987,2469.937,2020-4-19T14:58:05Z
2020-04-19T13:00:28Z,42.805,6.029,13.2979,4.59995,2469.937,2020-4-19T15:01:08Z
2020-04-19T13:03:31Z,42.805,6.029,13.2990,4.59998,2469.923,2020-4-19T15:04:11Z
2020-04-19T13:06:34Z,42.805,6.029,13.2990,4.60005,2469.923,2020-4-19T15:07:14Z
2020-04-19T13:09:37Z,42.805,6.029,13.2982,4.59991,2469.923,2020-4-19T15:10:17Z
2020-04-19T13:12:41Z,42.805,6.029,13.2983,4.60013,2469.937,2020-4-19T15:13:21Z
2020-04-19T13:15:44Z,42.805,6.029,13.2993,4.60014,2469.96,2020-4-19T15:16:24Z
2020-04-19T13:18:47Z,42.805,6.029,13.2993,4.60015,2469.947,2020-4-19T15:19:27Z
2020-04-19T13:21:50Z,42.805,6.029,13.2992,4.60015,2469.984,2020-4-19T15:22:30Z
2020-04-19T13:24:54Z,42.805,6.029,13.2995,4.60009,2469.984,2020-4-19T15:25:34Z
2020-04-19T13:27:57Z,42.805,6.029,13.2988,4.60011,2469.923,2020-4-19T15:28:37Z
2020-04-19T13:31:00Z,42.805,6.029,13.2982,4.60009,2469.923,2020-4-19T15:31:40Z
2020-04-19T13:34:03Z,42.805,6.029,13.2982,4.60005,2469.923,2020-4-19T15:34:43Z
2020-04-19T13:37:07Z,42.805,6.029,13.2982,4.60010,2469.937,2020-4-19T15:37:47Z
2020-04-19T13:40:10Z,42.805,6.029,13.2989,4.60006,2469.947,2020-4-19T15:40:50Z
2020-04-19T13:43:13Z,42.805,6.029,13.2987,4.60001,2469.984,2020-4-19T15:43:53Z
2020-04-19T13:46:16Z,42.805,6.029,13.2982,4.59995,2469.97,2020-4-19T15:46:56Z
2020-04-19T13:49:20Z,42.805,6.029,13.2989,4.60003,2469.947,2020-4-19T15:50:00Z
2020-04-19T13:52:23Z,42.805,6.029,13.2982,4.60010,2469.947,2020-4-19T15:53:03Z
2020-04-19T13:55:26Z,42.805,6.029,13.2987,4.60009,2469.984,2020-4-19T15:56:06Z
2020-04-19T13:58:30Z,42.805,6.029,13.2986,4.60000,2469.96,2020-4-19T15:59:10Z
2020-04-19T14:01:33Z,42.805,6.029,13.2979,4.59990,2469.97,2020-4-19T16:02:13Z
2020-04-19T14:04:36Z,42.805,6.029,13.2980,4.60003,2469.947,2020-4-19T16:05:16Z
2020-04-19T14:07:39Z,42.805,6.029,13.2986,4.60005,2469.97,2020-4-19T16:08:19Z
2020-04-19T14:10:43Z,42.805,6.029,13.2976,4.60003,2469.993,2020-4-19T16:11:22Z
2020-04-19T14:13:46Z,42.805,6.029,13.2992,4.60006,2469.97,2020-4-19T16:14:26Z
2020-04-19T14:16:49Z,42.805,6.029,13.2982,4.60005,2469.993,2020-4-19T16:17:29Z
2020-04-19T14:19:52Z,42.805,6.029,13.2986,4.59995,2469.947,2020-4-19T16:20:32Z
2020-04-19T14:22:56Z,42.805,6.029,13.2984,4.59995,2469.923,2020-4-19T16:23:35Z
2020-04-19T14:25:59Z,42.805,6.029,13.2982,4.60004,2470.007,2020-4-19T16:26:39Z
2020-04-19T14:29:02Z,42.805,6.029,13.2989,4.60000,2469.947,2020-4-19T16:29:42Z
2020-04-19T14:32:05Z,42.805,6.029,13.2986,4.60009,2469.96,2020-4-19T16:32:45Z
2020-04-19T14:35:09Z,42.805,6.029,13.2977,4.59999,2469.97,2020-4-19T16:35:48Z
2020-04-19T14:38:12Z,42.805,6.029,13.2990,4.60014,2469.97,2020-4-19T16:38:52Z
2020-04-19T14:41:15Z,42.805,6.029,13.2990,4.59988,2469.97,2020-4-19T16:41:55Z
2020-04-19T14:44:18Z,42.805,6.029,13.2983,4.60009,2469.993,2020-4-19T16:44:58Z
2020-04-19T14:47:21Z,42.805,6.029,13.2986,4.60015,2469.96,2020-4-19T16:48:01Z
2020-04-19T14:50:25Z,42.805,6.029,13.2993,4.60011,2469.96,2020-4-19T16:51:05Z
2020-04-19T14:53:28Z,42.805,6.029,13.2986,4.60010,2469.993,2020-4-19T16:54:08Z
2020-04-19T14:56:31Z,42.805,6.029,13.2984,4.60009,2469.993,2020-4-19T16:57:11Z
2020-04-19T14:59:34Z,42.805,6.029,13.2990,4.60011,2469.97,2020-4-19T17:00:14Z
2020-04-19T15:02:37Z,42.805,6.029,13.2991,4.60009,2470.007,2020-4-19T17:03:17Z
2020-04-19T15:05:41Z,42.805,6.029,13.2978,4.59992,2469.993,2020-4-19T17:06:21Z
2020-04-19T15:08:44Z,42.805,6.029,13.2983,4.60009,2469.993,2020-4-19T17:09:24Z
2020-04-19T15:11:47Z,42.805,6.029,13.2982,4.59999,2470.017,2020-4-19T17:12:27Z
2020-04-19T15:14:50Z,42.805,6.029,13.2978,4.60016,2470.017,2020-4-19T17:15:30Z